RH
33 48 86 78 82 86 90 93 92 90 83 80 76 74 66 40 30 24 31 27 26 25 28 27 25 24 24 24 23 23 23 24 26 28 35 45 52 55 37 46 45 44 35
34 34 59 83 84 80 87 92 92 92 86 83 78 75 66 46 33 26 32 28 26 27 28 28 26 26 26 25 24 23 24 24 25 26 31 37 46 50 40 43 47 44 32
32 36 39 52 74 85 82 89 91 93 90 87 85 80 68 48 33 28 32 29 28 29 29 29 28 28 28 28 26 25 24 24 25 25 26 32 33 32 40 39 41 34 30
31 32 36 31 66 70 84 89 93 95 94 91 86 82 74 55 32 28 33 31 29 31 31 30 29 30 31 30 29 27 26 26 25 26 26 29 30 32 34 35 37 30 29
26 26 30 36 35 50 72 84 94 97 96 92 88 81 73 51 33 31 36 33 32 32 32 32 31 32 33 33 33 32 31 30 29 28 28 29 30 32 32 32 29 28 30
25 26 24 33 39 37 69 74 85 94 90 92 87 80 71 47 33 30 36 35 34 34 34 34 34 35 36 36 36 37 37 37 36 35 35 34 34 35 36 38 38 38 37
22 23 24 23 32 33 46 76 89 95 92 91 83 78 65 47 33 35 36 34 35 34 35 36 36 38 38 39 39 41 42 43 44 44 45 46 46 48 49 51 53 53 48
24 25 24 23 23 25 29 84 88 99 85 86 82 76 62 44 41 42 37 39 39 37 37 38 39 40 42 42 43 44 45 46 48 49 51 52 53 55 56 58 59 59 56
24 24 28 29 25 24 34 63 93 98 90 85 80 71 53 45 45 41 44 43 41 40 41 43 44 45 46 46 47 46 47 49 50 52 53 54 55 56 56 58 60 62 77
33 32 39 42 45 46 55 78 96 89 85 80 72 61 52 50 44 46 45 45 44 45 47 48 50 50 51 52 52 53 53 54 54 56 57 58 59 61 62 63 65 66 68
42 56 71 81 77 84 94 92 87 85 77 69 66 62 56 48 49 51 50 48 49 51 53 55 57 58 60 60 60 60 61 62 63 64 66 69 72 74 76 76 77 79 83
63 65 89 100 100 99 92 88 84 70 66 70 70 65 54 53 54 55 56 58 60 62 64 64 65 66 67 66 66 67 69 72 72 67 49 31 16 11 9 9 9 10 12
74 74 81 99 97 93 89 82 76 74 76 76 70 61 58 61 64 66 68 69 69 69 70 70 70 70 70 71 60 39 19 10 9 9 9 9 8 8 8 8 8 9 11
82 88 91 92 91 88 86 83 81 81 79 76 68 66 70 73 73 74 74 74 75 72 72 72 64 40 17 10 10 10 10 10 9 9 9 9 10 11 11 12 15 18 20
94 94 92 90 89 89 87 86 84 83 79 74 74 75 79 81 79 78 77 76 74 65 38 17 10 10 11 11 11 10 10 9 9 9 10 10 12 14 18 22 24 28 32
92 97 96 94 87 87 85 83 81 79 77 77 79 80 81 81 79 77 72 54 23 11 10 11 12 12 12 12 12 11 10 9 9 10 11 13 16 19 22 26 33 39 42
84 89 88 89 85 81 77 77 77 80 83 80 81 83 82 75 65 40 19 10 11 12 13 14 14 15 14 13 11 10 10 10 12 15 18 19 23 28 32 33 34 36 41
85 86 85 82 80 81 81 80 81 85 82 80 78 69 60 40 16 11 12 13 14 14 16 17 17 14 12 10 11 12 15 18 22 27 31 34 32 33 37 37 38 38 47
68 77 79 80 80 78 79 79 84 83 76 63 49 29 16 12 12 13 14 15 16 19 19 16 14 11 11 13 18 22 26 29 31 34 38 41 42 43 46 70 72 68 62
73 73 76 80 85 86 87 82 72 58 40 22 14 13 14 14 14 15 17 20 20 19 16 13 12 13 18 22 27 34 38 36 38 40 46 53 61 63 84 92 92 90 76
81 78 80 82 80 81 75 57 37 21 17 15 15 16 16 16 18 21 22 21 18 15 13 15 19 24 26 30 36 39 44 48 52 61 58 60 67 73 92 98 91 85 93
84 81 82 81 73 59 44 25 19 18 18 17 17 18 20 22 24 24 22 19 16 15 18 22 27 32 36 42 42 44 50 57 81 72 70 69 75 96 92 84 70 68 82
92 88 78 72 53 34 25 20 22 22 21 22 23 24 28 31 36 33 20 18 18 22 28 33 37 40 43 47 52 57 64 70 74 77 76 83 84 79 77 74 71 70 63
89 84 73 50 35 29 24 22 26 28 28 28 32 36 48 54 37 22 21 24 29 34 38 41 44 47 52 57 62 68 76 77 83 82 89 91 86 85 87 71 62 67 72
82 74 54 39 36 35 36 34 36 36 36 44 57 63 46 29 24 24 29 35 39 41 44 49 56 60 59 61 80 97 95 95 95 97 95 92 90 80 64 57 57 62 66
62 49 41 41 48 44 44 46 45 56 63 65 54 48 36 28 30 37 43 44 46 53 58 63 63 68 65 60 76 100 100 100 99 99 97 86 76 66 68 72 72 72 74
Wind_Speed
20 21 28 26 26 29 32 33 30 28 28 27 25 21 18 15 14 13 11 9 8 6 5 4 3 3 3 3 4 5 6 6 5 4 2 0 0 2 5 2 4 5 10
35 26 24 29 29 29 32 35 33 31 29 26 22 20 17 16 15 14 13 11 9 8 6 5 4 3 2 3 4 5 5 6 6 4 2 0 2 2 2 2 3 5 9
37 35 29 28 32 33 33 35 35 33 30 28 25 21 20 19 19 18 15 13 11 10 8 6 4 3 2 1 3 4 5 5 6 6 4 2 1 5 1 2 3 6 7
37 43 34 27 32 34 34 34 36 35 32 30 27 23 21 22 20 16 15 14 13 11 9 7 5 3 2 1 2 3 4 4 5 5 5 4 3 2 1 3 2 10 8
33 37 38 29 30 32 35 36 36 36 34 32 28 23 21 19 17 18 17 16 14 13 10 8 6 4 3 1 0 2 3 3 4 4 5 4 4 3 4 3 6 7 4
30 31 26 32 31 31 36 37 38 37 35 34 29 25 23 22 21 20 19 18 16 14 11 9 7 5 4 2 1 1 2 3 4 4 5 5 5 6 6 9 13 13 8
30 29 31 29 35 32 37 40 40 39 36 34 29 24 23 20 19 19 19 18 17 14 12 10 8 6 5 4 3 3 3 3 4 5 5 6 6 7 8 10 13 17 20
24 29 30 33 32 36 39 43 41 39 37 33 28 25 23 21 20 18 18 18 16 14 12 11 9 8 7 6 5 5 5 5 6 7 7 7 8 9 10 12 14 17 19
22 24 25 29 33 35 39 40 40 40 37 32 29 26 24 23 21 20 19 18 16 14 12 11 10 9 8 7 6 6 7 7 8 8 9 9 10 11 12 13 14 15 12
16 19 20 24 29 34 39 40 40 39 35 30 27 25 25 23 22 20 19 17 15 14 12 11 10 9 8 8 7 7 7 8 9 10 10 11 12 13 14 15 15 16 16
16 16 18 21 26 31 36 40 39 36 32 29 28 26 25 24 23 20 18 16 15 13 12 11 10 9 9 8 7 7 8 9 9 10 11 12 13 13 14 14 16 17 18
12 14 17 21 26 32 37 38 37 34 31 30 28 26 25 24 21 19 18 16 14 12 11 10 9 8 8 6 6 6 6 6 7 8 10 11 13 14 16 16 17 18 19
15 16 20 24 27 31 33 34 32 31 30 29 28 26 24 23 21 19 17 15 13 12 11 9 8 7 5 3 2 3 5 7 9 11 13 15 16 17 18 18 19 20 20
20 21 23 28 28 28 30 31 31 30 30 29 27 26 25 23 21 20 17 15 13 11 10 9 7 5 3 2 3 6 7 9 11 13 15 17 18 19 20 21 21 22 23
26 29 30 32 31 31 31 30 30 29 29 29 28 27 26 24 22 20 18 15 14 13 11 8 5 3 1 4 6 8 10 12 14 16 17 18 19 20 20 21 21 22 23
33 32 33 34 34 33 32 31 31 32 31 31 30 29 28 25 21 19 19 17 15 12 9 6 3 1 4 7 10 12 14 15 17 18 19 19 20 20 20 20 20 20 22
39 37 35 35 35 34 34 33 33 33 33 32 31 29 28 24 23 21 19 16 13 9 6 2 2 5 8 10 13 16 17 17 18 19 20 20 21 21 22 21 21 20 19
40 39 38 36 35 33 32 33 33 33 33 33 32 30 27 25 23 20 16 13 9 6 2 3 5 8 11 13 15 17 17 17 17 18 19 20 20 20 20 20 20 20 20
41 42 40 36 35 35 36 36 36 34 33 33 30 27 24 23 20 17 13 9 5 3 4 6 9 11 13 14 16 16 16 16 16 16 17 17 18 17 16 18 19 19 20
41 46 40 39 37 37 37 38 38 35 32 30 29 26 22 19 16 12 9 5 3 4 7 10 12 14 14 14 14 13 15 15 15 15 15 15 15 16 15 15 17 21 22
42 44 42 42 41 40 39 37 35 33 31 28 25 23 19 15 12 8 5 2 4 7 9 11 12 13 13 13 12 13 14 14 15 16 16 16 15 14 14 15 18 19 20
41 44 45 42 41 39 39 37 35 31 28 25 22 19 15 12 7 4 2 5 8 10 11 12 11 11 11 12 12 12 12 12 13 15 17 17 15 16 17 17 18 19 19
42 44 46 44 40 37 35 36 32 29 26 22 19 16 12 7 3 3 6 9 10 11 11 10 10 10 11 12 12 11 10 11 13 15 16 15 16 19 20 21 20 21 21
45 45 45 44 41 36 32 30 30 26 22 20 16 11 6 3 4 7 9 10 10 9 9 9 10 12 12 12 10 9 11 12 14 16 16 19 20 21 23 24 22 21 21
42 44 44 43 39 34 31 28 26 22 19 15 10 6 4 5 7 9 9 9 9 8 9 10 11 13 13 12 11 13 14 16 17 17 21 22 23 24 22 21 20 20 21
42 42 41 40 36 33 30 26 22 18 13 10 7 6 7 8 9 8 8 8 8 8 9 10 11 11 12 13 15 15 15 15 14 18 21 23 23 22 20 21 22 22 22
Wind_Direction
261 255 236 231 222 217 214 212 210 207 206 205 207 208 212 209 208 204 201 197 195 196 192 175 141 112 87 71 61 53 50 48 58 52 71 140 340 8 350 14 19 18 12
253 258 240 231 227 220 215 214 213 212 211 213 215 216 215 211 211 206 201 198 197 196 194 183 157 132 106 80 66 56 53 54 56 58 100 148 286 293 329 357 3 2 360
243 247 247 232 226 220 217 214 214 214 215 213 211 211 209 210 210 206 201 199 197 197 195 187 167 151 137 97 64 52 47 46 44 47 60 69 39 337 293 329 348 6 3
223 241 244 231 227 225 220 216 214 215 215 215 216 219 222 217 216 210 201 198 197 198 196 191 179 170 172 133 66 53 43 37 34 31 39 48 19 15 342 305 302 351 348
229 229 238 247 243 229 221 217 213 215 216 217 216 219 217 217 215 204 201 198 199 198 197 194 188 189 196 196 53 35 28 20 18 17 20 13 10 12 340 326 312 339 345
243 239 236 229 247 225 219 214 210 211 213 213 211 214 215 211 207 204 201 199 199 198 197 196 196 201 212 230 266 313 338 351 356 357 358 354 355 342 339 324 324 328 324
241 241 232 224 216 235 220 212 208 205 208 207 208 210 212 211 210 205 201 200 199 199 198 201 204 212 224 237 255 277 301 318 324 328 331 330 327 324 322 320 320 321 320
257 245 236 226 219 218 216 212 204 201 202 201 204 207 208 205 200 200 198 194 196 200 202 207 213 221 232 242 253 268 282 291 297 302 307 309 308 310 312 313 315 318 315
257 253 240 226 215 209 211 208 201 194 194 196 201 201 200 197 198 194 191 195 198 200 203 210 218 225 235 245 252 263 273 280 287 291 295 298 299 302 304 305 307 307 307
243 239 235 226 216 205 201 197 193 189 190 194 197 197 194 193 193 194 195 195 198 201 205 211 219 229 239 247 256 265 272 278 284 287 291 295 299 301 302 303 302 300 293
225 220 213 208 207 199 190 183 184 185 184 187 191 191 190 189 189 191 192 195 197 200 205 213 221 229 236 243 255 267 275 282 287 292 297 300 303 303 303 302 301 299 296
205 196 190 187 186 182 180 178 178 180 183 184 185 186 186 185 186 186 188 190 194 195 202 208 214 220 229 244 259 271 281 291 300 303 305 306 306 306 307 305 303 301 299
192 181 175 174 175 175 174 175 175 178 179 181 182 180 181 180 181 182 182 182 186 188 191 198 205 209 209 209 244 289 303 307 308 307 307 307 306 305 305 305 305 304 303
187 180 173 169 173 175 175 175 173 177 177 178 178 177 177 177 178 177 176 178 177 180 178 173 172 173 185 254 296 305 309 310 309 309 309 309 309 310 309 308 307 307 307
189 183 176 171 172 174 174 175 177 177 177 176 175 174 172 172 172 173 171 170 166 162 162 167 173 187 255 301 308 311 311 308 307 307 306 306 307 306 306 306 307 308 309
193 185 178 173 171 175 175 176 175 174 175 173 171 170 168 166 165 170 162 162 162 161 161 166 172 288 318 317 314 311 309 308 307 306 306 307 305 303 302 301 301 302 305
194 186 183 179 172 174 173 170 167 167 166 166 167 166 165 160 162 164 160 161 158 154 162 175 300 315 313 310 308 306 306 307 307 308 307 305 304 305 304 302 301 300 300
197 187 182 178 174 173 171 170 167 165 165 163 161 162 159 159 163 162 159 159 157 160 193 282 302 305 306 307 306 303 305 307 308 308 307 307 308 308 309 308 305 303 300
200 191 183 179 175 173 172 170 163 164 163 159 158 158 160 162 162 160 158 161 168 210 279 298 303 305 305 305 303 303 305 308 309 308 307 308 307 309 311 312 315 314 312
195 188 182 176 171 166 166 163 160 161 160 158 157 156 159 161 161 162 163 175 216 279 299 305 307 306 306 305 305 306 307 311 313 312 314 314 315 316 315 315 314 307 311
184 181 174 170 168 164 165 163 159 160 159 158 157 157 158 162 167 167 173 225 285 300 305 306 306 305 304 304 308 311 310 312 312 313 315 315 316 315 315 307 301 306 310
176 174 168 164 163 163 165 161 159 159 158 158 159 159 160 162 164 177 256 297 303 303 304 304 303 303 306 310 313 311 310 310 305 311 312 313 314 311 307 308 305 305 304
168 167 164 160 160 164 168 159 157 158 158 159 158 158 157 161 187 275 294 295 298 301 300 300 303 305 308 313 312 312 311 307 307 310 313 313 304 307 307 308 307 304 303
163 164 160 158 157 161 163 163 157 158 159 158 156 156 168 212 264 283 288 294 295 297 298 302 304 306 312 319 319 315 308 306 308 311 312 305 306 305 306 305 300 298 298
158 161 159 155 154 158 158 157 156 157 154 154 160 176 212 255 272 281 287 291 293 293 294 299 304 313 316 320 322 315 314 310 310 310 299 302 303 305 306 305 309 305 299
156 155 153 151 149 152 150 150 151 154 160 164 176 203 237 260 271 278 287 296 296 297 298 299 301 303 305 309 311 306 303 308 313 299 296 300 304 306 306 308 313 315 313